User: anonymous   Login
Location: Tel Aviv
(32.0670°N, 34.7670°E)
Time: 01:41:49
(UTC+03:00)
Language:

XW-2F - Orbit

View from above orbital plane
View from above orbital plane
View from above satellite
View from above satellite

Ground track
Ground track

The orbit data is extracted from the following two-line orbital elements,

1 40910U 15049M   23090.52447538  .00036818  00000-0  11519-2 0  9990
2 40910  97.4691 102.6417 0012378  51.8992  51.1857 15.32964121416976
Epoch (UTC): 31 March 2023 12:35:14
Eccentricity: 0.0012378
inclination: 97.4691°
perigee height: 458 km
apogee height: 475 km
right ascension of ascending node: 102.6417°
argument of perigee: 51.8992°
revolutions per day: 15.32964121
mean anomaly at epoch: 51.1857°
orbit number at epoch: 41697

The dashed part of the orbit path shows where the satellite is in the earth's shadow,  

DLR